This is the latest recevied weather packets stored in our database for station/object W2GRK-15. If no packets are shown the sender has not sent any weather packets the latest 10 day(s).
| Time | Temp. | Humidity | Pressure | Rain* | Wind** | Luminosity | Snow |
|---|---|---|---|---|---|---|---|
| 1777524041 | 8.89° C | 98% | 1010.9 hPa | 1.27 mm | - | 0 W/m² | - |
| 1777523816 | 8.89° C | 98% | 1011 hPa | 1.27 mm | - | 0 W/m² | - |
| 1777523361 | 8.89° C | 97% | 1010.8 hPa | 1.27 mm | - | 0 W/m² | - |
| 1777523248 | 8.89° C | 97% | 1010.9 hPa | 1.27 mm | - | 0 W/m² | - |
| 1777523055 | 8.89° C | 97% | 1011.2 hPa | 1.27 mm | - | 0 W/m² | - |
| 1777522878 | 8.89° C | 97% | 1011.1 hPa | 1.27 mm | - | 0 W/m² | - |
| 1777522636 | 8.89° C | 97% | 1011 hPa | 1.27 mm | - | 0 W/m² | - |
| 1777522190 | 9.44° C | 97% | 1010.6 hPa | 1.02 mm | - | 0 W/m² | - |
| 1777521928 | 8.89° C | 97% | 1010.2 hPa | 1.02 mm | - | 0 W/m² | - |
| 1777521381 | 9.44° C | 97% | 1010.5 hPa | 1.27 mm | - | 0 W/m² | - |
| 1777521139 | 9.44° C | 97% | 1010.4 hPa | 1.52 mm | - | 0 W/m² | - |
| 1777520962 | 9.44° C | 97% | 1010.5 hPa | 1.52 mm | - | 0 W/m² | - |
| 1777520897 | 9.44° C | 97% | 1010.7 hPa | 1.78 mm | - | 0 W/m² | - |
| 1777520849 | 9.44° C | 97% | 1010.8 hPa | 1.52 mm | - | 0 W/m² | - |
| 1777520479 | 9.44° C | 97% | 1010.7 hPa | 2.03 mm | - | 0 W/m² | - |
| 1777519903 | 9.44° C | 97% | 1010.6 hPa | 3.3 mm | - | 0 W/m² | - |
| 1777519288 | 9.44° C | 97% | 1010.5 hPa | 5.59 mm | - | 0 W/m² | - |
| 1777519111 | 9.44° C | 97% | 1010.6 hPa | 5.59 mm | - | 0 W/m² | - |
| 1777518869 | 9.44° C | 97% | 1011 hPa | 5.84 mm | - | 0 W/m² | - |
| 1777518740 | 9.44° C | 97% | 1010.8 hPa | 5.84 mm | - | 0 W/m² | - |
| 1777518470 | 9.44° C | 97% | 1010.9 hPa | 5.84 mm | - | 0 W/m² | - |
| 1777518265 | 9.44° C | 97% | 1011.1 hPa | 5.84 mm | - | 0 W/m² | - |
| 1777518265 | 9.44° C | 97% | 1011.1 hPa | 6.1 mm | - | 0 W/m² | - |
| 1777517790 | 9.44° C | 97% | 1011.3 hPa | 6.1 mm | - | 0 W/m² | - |
| 1777517549 | 9.44° C | 97% | 1011.2 hPa | 6.1 mm | - | 0 W/m² | - |
* Rain latest hour (hover to see other rain measurements)
** Current wind speed in m/s (hover to see current wind gust speed)